,,PA_Meas_PMT16A,,PR_Meas_QMR101_102,,RH_Meas_QMH101,,SR_Meas_QMS101,,TA_Meas_QMH101,,GenWind,,GenWind,
time,status,PA,status,PR,status,RH,status,SR,status,TA,status,DirAvg,status,SpdAvg,
2015-05-09, 00:00:04,VALID,917.762,VALID,0,VALID,98.769,VALID,0,VALID,19.8393,VALID,27,VALID,0,
2015-05-09, 00:01:04,VALID,917.728,VALID,0,VALID,98.769,VALID,0,VALID,19.8183,VALID,28,VALID,0,
2015-05-09, 00:02:04,VALID,917.699,VALID,0,VALID,98.769,VALID,0,VALID,19.8393,VALID,28,VALID,0,
2015-05-09, 00:03:04,VALID,917.672,VALID,0,VALID,98.7766,VALID,0,VALID,19.8588,VALID,27,VALID,0,
2015-05-09, 00:04:04,VALID,917.662,VALID,0,VALID,98.7766,VALID,0,VALID,19.8588,VALID,27,VALID,0,
2015-05-09, 00:05:04,VALID,917.663,VALID,0,VALID,98.769,VALID,0,VALID,19.8603,VALID,27,VALID,0,
2015-05-09, 00:06:04,VALID,917.635,VALID,0,VALID,98.7995,VALID,0,VALID,19.8783,VALID,27,VALID,0,
2015-05-09, 00:07:04,VALID,917.609,VALID,0,VALID,98.7614,VALID,0,VALID,19.8783,VALID,27,VALID,0,
2015-05-09, 00:08:04,VALID,917.609,VALID,0,VALID,98.7537,VALID,0,VALID,19.8978,VALID,27,VALID,0,
2015-05-09, 00:09:04,VALID,917.6,VALID,0,VALID,98.7385,VALID,0,VALID,19.9173,VALID,27,VALID,0,
2015-05-09, 00:10:04,VALID,917.59,VALID,0,VALID,98.7461,VALID,0,VALID,19.9368,VALID,27,VALID,0,
2015-05-09, 00:11:04,VALID,917.575,VALID,0,VALID,98.7614,VALID,0,VALID,19.9173,VALID,27,VALID,0,
2015-05-09, 00:12:04,VALID,917.586,VALID,0,VALID,98.7614,VALID,0,VALID,19.9368,VALID,27,VALID,0,
2015-05-09, 00:13:04,VALID,917.579,VALID,0,VALID,98.7461,VALID,0,VALID,19.9563,VALID,27,VALID,0,
2015-05-09, 00:14:04,VALID,917.569,VALID,0,VALID,98.7385,VALID,0,VALID,19.9563,VALID,27,VALID,0,
2015-05-09, 00:15:04,VALID,917.552,VALID,0,VALID,98.7461,VALID,0,VALID,19.9563,VALID,27,VALID,0,
2015-05-09, 00:16:04,VALID,917.542,VALID,0,VALID,98.7461,VALID,0,VALID,19.9353,VALID,27,VALID,0,
2015-05-09, 00:17:04,VALID,917.537,VALID,0,VALID,98.7385,VALID,0,VALID,19.9563,VALID,27,VALID,0,
2015-05-09, 00:18:04,VALID,917.516,VALID,0,VALID,98.7385,VALID,0,VALID,19.9548,VALID,27,VALID,0,
2015-05-09, 00:19:04,VALID,917.492,VALID,0,VALID,98.7385,VALID,0,VALID,19.9953,VALID,27,VALID,0,
2015-05-09, 00:20:04,VALID,917.52,VALID,0,VALID,98.7232,VALID,0,VALID,19.9953,VALID,27,VALID,0,
2015-05-09, 00:21:04,VALID,917.492,VALID,0,VALID,98.7232,VALID,0,VALID,20.0148,VALID,27,VALID,0,
2015-05-09, 00:22:04,VALID,917.503,VALID,0,VALID,98.7461,VALID,0,VALID,19.9743,VALID,27,VALID,0,
2015-05-09, 00:23:04,VALID,917.509,VALID,0,VALID,98.7385,VALID,0,VALID,19.9953,VALID,28,VALID,0,
2015-05-09, 00:24:04,VALID,917.497,VALID,0,VALID,98.7537,VALID,0,VALID,19.9758,VALID,27,VALID,0,
2015-05-09, 00:25:04,VALID,917.487,VALID,0,VALID,98.7461,VALID,0,VALID,19.9563,VALID,27,VALID,0,
2015-05-09, 00:26:04,VALID,917.503,VALID,0,VALID,98.7537,VALID,0,VALID,19.9758,VALID,27,VALID,0,
2015-05-09, 00:27:04,VALID,917.487,VALID,0,VALID,98.7385,VALID,0,VALID,19.9953,VALID,27,VALID,0,
2015-05-09, 00:28:04,VALID,917.476,VALID,0,VALID,98.7461,VALID,0,VALID,19.9758,VALID,27,VALID,0,
2015-05-09, 00:29:04,VALID,917.487,VALID,0,VALID,98.7385,VALID,0,VALID,19.9563,VALID,27,VALID,0,
2015-05-09, 00:30:04,VALID,917.478,VALID,0,VALID,98.769,VALID,0,VALID,19.9563,VALID,27,VALID,0,
2015-05-09, 00:31:04,VALID,917.471,VALID,0,VALID,98.7232,VALID,0,VALID,19.9953,VALID,28,VALID,0,
2015-05-09, 00:32:04,VALID,917.411,VALID,0,VALID,98.7461,VALID,0,VALID,20.0148,VALID,27,VALID,0,
2015-05-09, 00:33:04,VALID,917.43,VALID,0,VALID,98.7232,VALID,0,VALID,19.9953,VALID,27,VALID,0,
2015-05-09, 00:34:04,VALID,917.422,VALID,0,VALID,98.7461,VALID,0,VALID,20.0148,VALID,27,VALID,0,
2015-05-09, 00:35:04,VALID,917.438,VALID,0,VALID,98.7309,VALID,0,VALID,20.0148,VALID,27,VALID,0,
2015-05-09, 00:36:04,VALID,917.417,VALID,0,VALID,98.708,VALID,0,VALID,20.0148,VALID,27,VALID,0,
2015-05-09, 00:37:04,VALID,917.427,VALID,0,VALID,98.7232,VALID,0,VALID,20.0343,VALID,27,VALID,0,
2015-05-09, 00:38:04,VALID,917.411,VALID,0,VALID,98.7461,VALID,0,VALID,19.9953,VALID,27,VALID,0,
2015-05-09, 00:39:04,VALID,917.39,VALID,0,VALID,98.7461,VALID,0,VALID,20.0148,VALID,27,VALID,0,
2015-05-09, 00:40:04,VALID,917.383,VALID,0,VALID,98.7537,VALID,0,VALID,20.0148,VALID,27,VALID,0,
2015-05-09, 00:41:04,VALID,917.368,VALID,0,VALID,98.708,VALID,0,VALID,20.0343,VALID,27,VALID,0,
2015-05-09, 00:42:04,VALID,917.34,VALID,0,VALID,98.7385,VALID,0,VALID,20.0148,VALID,341,VALID,0,
2015-05-09, 00:43:04,VALID,917.325,VALID,0,VALID,98.7309,VALID,0,VALID,20.0343,VALID,1,VALID,0,
2015-05-09, 00:44:04,VALID,917.292,VALID,0,VALID,98.7385,VALID,0,VALID,20.0343,VALID,1,VALID,0,
2015-05-09, 00:45:04,VALID,917.302,VALID,0,VALID,98.7385,VALID,0,VALID,20.0343,VALID,1,VALID,0,
2015-05-09, 00:46:04,VALID,917.3,VALID,0,VALID,98.7232,VALID,0,VALID,20.0343,VALID,1,VALID,0,
2015-05-09, 00:47:04,VALID,917.266,VALID,0,VALID,98.7309,VALID,0,VALID,20.0148,VALID,339,VALID,0,
2015-05-09, 00:48:04,VALID,917.251,VALID,0,VALID,98.7156,VALID,0,VALID,20.0163,VALID,345,VALID,0,
2015-05-09, 00:49:04,VALID,917.244,VALID,0,VALID,98.7309,VALID,0,VALID,19.9953,VALID,345,VALID,0,
2015-05-09, 00:50:04,VALID,917.229,VALID,0,VALID,98.708,VALID,0,VALID,20.0148,VALID,345,VALID,0,
2015-05-09, 00:51:04,VALID,917.192,VALID,0,VALID,98.7614,VALID,0,VALID,19.9758,VALID,356,VALID,0,
2015-05-09, 00:52:04,VALID,917.212,VALID,0,VALID,98.7461,VALID,0,VALID,19.9563,VALID,5,VALID,0,
2015-05-09, 00:53:04,VALID,917.225,VALID,0,VALID,98.7614,VALID,0,VALID,19.9368,VALID,5,VALID,0,
2015-05-09, 00:54:04,VALID,917.242,VALID,0,VALID,98.7614,VALID,0,VALID,19.9368,VALID,5,VALID,0,
2015-05-09, 00:55:04,VALID,917.229,VALID,0,VALID,98.7537,VALID,0,VALID,19.9563,VALID,5,VALID,0,
2015-05-09, 00:56:04,VALID,917.23,VALID,0,VALID,98.7309,VALID,0,VALID,19.9953,VALID,5,VALID,0,
2015-05-09, 00:57:04,VALID,917.253,VALID,0,VALID,98.7461,VALID,0,VALID,19.9548,VALID,5,VALID,0,
2015-05-09, 00:58:04,VALID,917.228,VALID,0,VALID,98.7232,VALID,0,VALID,19.9953,VALID,5,VALID,0,
2015-05-09, 00:59:04,VALID,917.268,VALID,0,VALID,98.7385,VALID,0,VALID,19.9953,VALID,5,VALID,0,
2015-05-09, 01:00:04,VALID,917.249,VALID,0,VALID,98.7232,VALID,0,VALID,19.9743,VALID,5,VALID,0,
2015-05-09, 01:01:04,VALID,917.237,VALID,0,VALID,98.7461,VALID,0,VALID,19.9953,VALID,5,VALID,0,
2015-05-09, 01:02:04,VALID,917.222,VALID,0,VALID,98.7309,VALID,0,VALID,19.9368,VALID,5,VALID,0,
2015-05-09, 01:03:04,VALID,917.254,VALID,0,VALID,98.7461,VALID,0,VALID,19.9368,VALID,5,VALID,0,
2015-05-09, 01:04:04,VALID,917.25,VALID,0,VALID,98.7537,VALID,0,VALID,19.9368,VALID,5,VALID,0,
2015-05-09, 01:05:04,VALID,917.235,VALID,0,VALID,98.7385,VALID,0,VALID,19.9563,VALID,5,VALID,0,
2015-05-09, 01:06:04,VALID,917.239,VALID,0,VALID,98.7461,VALID,0,VALID,19.9773,VALID,5,VALID,0,
2015-05-09, 01:07:04,VALID,917.214,VALID,0,VALID,98.7385,VALID,0,VALID,19.9758,VALID,5,VALID,0,
2015-05-09, 01:08:04,VALID,917.203,VALID,0,VALID,98.7461,VALID,0,VALID,19.9563,VALID,5,VALID,0,
2015-05-09, 01:09:04,VALID,917.186,VALID,0,VALID,98.7309,VALID,0,VALID,19.9353,VALID,5,VALID,0,
2015-05-09, 01:10:04,VALID,917.202,VALID,0,VALID,98.7461,VALID,0,VALID,19.9563,VALID,5,VALID,0,
2015-05-09, 01:11:04,VALID,917.206,VALID,0,VALID,98.7385,VALID,0,VALID,19.9758,VALID,5,VALID,0,
2015-05-09, 01:12:04,VALID,917.216,VALID,0,VALID,98.7385,VALID,0,VALID,19.9758,VALID,5,VALID,0,
2015-05-09, 01:13:04,VALID,917.224,VALID,0,VALID,98.7385,VALID,0,VALID,19.9368,VALID,5,VALID,0,
2015-05-09, 01:14:04,VALID,917.242,VALID,0,VALID,98.7309,VALID,0,VALID,19.9563,VALID,5,VALID,0,
2015-05-09, 01:15:04,VALID,917.237,VALID,0,VALID,98.7232,VALID,0,VALID,19.9563,VALID,4,VALID,0,
2015-05-09, 01:16:04,VALID,917.239,VALID,0,VALID,98.7461,VALID,0,VALID,19.9368,VALID,335,VALID,0,
2015-05-09, 01:17:04,VALID,917.263,VALID,0,VALID,98.7385,VALID,0,VALID,19.9368,VALID,335,VALID,0,
2015-05-09, 01:18:04,VALID,917.235,VALID,0,VALID,98.7461,VALID,0,VALID,19.9173,VALID,335,VALID,0,
2015-05-09, 01:19:04,VALID,917.24,VALID,0,VALID,98.7385,VALID,0,VALID,19.9173,VALID,335,VALID,0,
2015-05-09, 01:20:04,VALID,917.228,VALID,0,VALID,98.7461,VALID,0,VALID,19.9173,VALID,335,VALID,0,
2015-05-09, 01:21:04,VALID,917.21,VALID,0,VALID,98.7537,VALID,0,VALID,19.9173,VALID,335,VALID,0,
2015-05-09, 01:22:04,VALID,917.195,VALID,0,VALID,98.7461,VALID,0,VALID,19.9383,VALID,335,VALID,0,
2015-05-09, 01:23:04,VALID,917.162,VALID,0,VALID,98.7385,VALID,0,VALID,19.9578,VALID,335,VALID,0,
2015-05-09, 01:24:04,VALID,917.175,VALID,0,VALID,98.7385,VALID,0,VALID,19.9173,VALID,335,VALID,0,
2015-05-09, 01:25:04,VALID,917.172,VALID,0,VALID,98.7461,VALID,0,VALID,19.8978,VALID,335,VALID,0,
2015-05-09, 01:26:04,VALID,917.155,VALID,0,VALID,98.7309,VALID,0,VALID,19.8783,VALID,335,VALID,0,
2015-05-09, 01:27:04,VALID,917.162,VALID,0,VALID,98.7537,VALID,0,VALID,19.8588,VALID,335,VALID,0,
2015-05-09, 01:28:04,VALID,917.125,VALID,0,VALID,98.7614,VALID,0,VALID,19.8393,VALID,335,VALID,0,
2015-05-09, 01:29:04,VALID,917.159,VALID,0,VALID,98.7537,VALID,0,VALID,19.8783,VALID,335,VALID,0,
2015-05-09, 01:30:04,VALID,917.122,VALID,0,VALID,98.7614,VALID,0,VALID,19.8588,VALID,335,VALID,0,
2015-05-09, 01:31:04,VALID,917.137,VALID,0,VALID,98.7614,VALID,0,VALID,19.8588,VALID,335,VALID,0,
2015-05-09, 01:32:04,VALID,917.141,VALID,0,VALID,98.7309,VALID,0,VALID,19.8993,VALID,335,VALID,0,
2015-05-09, 01:33:04,VALID,917.153,VALID,0,VALID,98.7385,VALID,0,VALID,19.8783,VALID,335,VALID,0,
2015-05-09, 01:34:04,VALID,917.137,VALID,0,VALID,98.7385,VALID,0,VALID,19.8978,VALID,344,VALID,0,
2015-05-09, 01:35:04,VALID,917.156,VALID,0,VALID,98.7309,VALID,0,VALID,19.8978,VALID,351,VALID,0,
2015-05-09, 01:36:04,VALID,917.148,VALID,0,VALID,98.7461,VALID,0,VALID,19.8783,VALID,351,VALID,0,
2015-05-09, 01:37:04,VALID,917.172,VALID,0,VALID,98.7537,VALID,0,VALID,19.8588,VALID,351,VALID,0,
2015-05-09, 01:38:04,VALID,917.159,VALID,0,VALID,98.7614,VALID,0,VALID,19.8393,VALID,335,VALID,0,
2015-05-09, 01:39:04,VALID,917.133,VALID,0,VALID,98.7385,VALID,0,VALID,19.8393,VALID,335,VALID,0,
2015-05-09, 01:40:04,VALID,917.133,VALID,0,VALID,98.769,VALID,0,VALID,19.8198,VALID,335,VALID,0,
2015-05-09, 01:41:04,VALID,917.133,VALID,0,VALID,98.7537,VALID,0,VALID,19.8198,VALID,335,VALID,0,
2015-05-09, 01:42:04,VALID,917.131,VALID,0,VALID,98.7614,VALID,0,VALID,19.8198,VALID,335,VALID,0,
2015-05-09, 01:43:04,VALID,917.099,VALID,0,VALID,98.7461,VALID,0,VALID,19.8603,VALID,335,VALID,0,
2015-05-09, 01:44:04,VALID,917.088,VALID,0,VALID,98.7537,VALID,0,VALID,19.8198,VALID,335,VALID,0,
2015-05-09, 01:45:04,VALID,917.066,VALID,0,VALID,98.7461,VALID,0,VALID,19.8003,VALID,335,VALID,0,
2015-05-09, 01:46:04,VALID,917.044,VALID,0,VALID,98.7614,VALID,0,VALID,19.8003,VALID,335,VALID,0,
2015-05-09, 01:47:04,VALID,917.063,VALID,0,VALID,98.7614,VALID,0,VALID,19.8003,VALID,335,VALID,0,
2015-05-09, 01:48:04,VALID,917.058,VALID,0,VALID,98.769,VALID,0,VALID,19.7808,VALID,335,VALID,0,
2015-05-09, 01:49:04,VALID,917.07,VALID,0,VALID,98.7537,VALID,0,VALID,19.7808,VALID,335,VALID,0,
2015-05-09, 01:50:04,VALID,917.044,VALID,0,VALID,98.7537,VALID,0,VALID,19.8003,VALID,335,VALID,0,
2015-05-09, 01:51:04,VALID,917.03,VALID,0,VALID,98.7461,VALID,0,VALID,19.8003,VALID,335,VALID,0,
2015-05-09, 01:52:04,VALID,917.014,VALID,0,VALID,98.7309,VALID,0,VALID,19.8198,VALID,340,VALID,0,
2015-05-09, 01:53:04,VALID,917.039,VALID,0,VALID,98.7461,VALID,0,VALID,19.8213,VALID,341,VALID,0,
2015-05-09, 01:54:04,VALID,917.033,VALID,0,VALID,98.769,VALID,0,VALID,19.8198,VALID,341,VALID,0,
2015-05-09, 01:55:04,VALID,917.041,VALID,0,VALID,98.769,VALID,0,VALID,19.7808,VALID,341,VALID,0,
2015-05-09, 01:56:04,VALID,917.046,VALID,0,VALID,98.7461,VALID,0,VALID,19.7808,VALID,341,VALID,0,
2015-05-09, 01:57:04,VALID,917.012,VALID,0,VALID,98.7537,VALID,0,VALID,19.7613,VALID,340,VALID,0,
2015-05-09, 01:58:04,VALID,916.979,VALID,0,VALID,98.7614,VALID,0,VALID,19.7613,VALID,340,VALID,0,
2015-05-09, 01:59:04,VALID,916.969,VALID,0,VALID,98.7614,VALID,0,VALID,19.7613,VALID,340,VALID,0,
2015-05-09, 02:00:04,VALID,916.955,VALID,0,VALID,98.769,VALID,0,VALID,19.7418,VALID,351,VALID,0,
2015-05-09, 02:01:04,VALID,916.97,VALID,0,VALID,98.7614,VALID,0,VALID,19.7418,VALID,357,VALID,0,
2015-05-09, 02:02:04,VALID,916.948,VALID,0,VALID,98.7766,VALID,0,VALID,19.7223,VALID,339,VALID,0,
2015-05-09, 02:03:04,VALID,916.964,VALID,0,VALID,98.7614,VALID,0,VALID,19.7223,VALID,289,VALID,0,
2015-05-09, 02:04:04,VALID,916.99,VALID,0,VALID,98.7537,VALID,0,VALID,19.7028,VALID,243,VALID,0,
2015-05-09, 02:05:04,VALID,916.972,VALID,0,VALID,98.7461,VALID,0,VALID,19.7028,VALID,243,VALID,0,
2015-05-09, 02:06:04,VALID,916.93,VALID,0,VALID,98.7614,VALID,0,VALID,19.7043,VALID,243,VALID,0,
2015-05-09, 02:07:04,VALID,916.913,VALID,0,VALID,98.769,VALID,0,VALID,19.7223,VALID,332,VALID,0,
2015-05-09, 02:08:04,VALID,916.895,VALID,0,VALID,98.7537,VALID,0,VALID,19.7223,VALID,332,VALID,0,
2015-05-09, 02:09:04,VALID,916.869,VALID,0,VALID,98.7766,VALID,0,VALID,19.7223,VALID,332,VALID,0,
2015-05-09, 02:10:04,VALID,916.84,VALID,0,VALID,98.7766,VALID,0,VALID,19.7043,VALID,331,VALID,0,
2015-05-09, 02:11:04,VALID,916.847,VALID,0,VALID,98.7766,VALID,0,VALID,19.6638,VALID,331,VALID,0,
2015-05-09, 02:12:04,VALID,916.833,VALID,0,VALID,98.769,VALID,0,VALID,19.6638,VALID,320,VALID,0,
2015-05-09, 07:15:04,VALID,917.385,VALID,0,VALID,98.6165,VALID,83.5892,VALID,19.7043,VALID,109,VALID,0,
2015-05-09, 07:16:04,VALID,917.369,VALID,0,VALID,98.6089,VALID,86.2752,VALID,19.7418,VALID,109,VALID,0,
2015-05-09, 07:17:04,VALID,917.402,VALID,0,VALID,98.6013,VALID,89.0687,VALID,19.7628,VALID,109,VALID,0,
2015-05-09, 07:18:04,VALID,917.41,VALID,0,VALID,98.6165,VALID,92.1845,VALID,19.7613,VALID,109,VALID,0,
2015-05-09, 07:19:04,VALID,917.412,VALID,0,VALID,98.6241,VALID,93.3664,VALID,19.7823,VALID,109,VALID,0,
2015-05-09, 07:20:04,VALID,917.426,VALID,0,VALID,98.6241,VALID,92.6143,VALID,19.7823,VALID,109,VALID,0,
2015-05-09, 07:21:04,VALID,917.443,VALID,0,VALID,98.6318,VALID,92.7217,VALID,19.7808,VALID,109,VALID,0,
2015-05-09, 07:22:04,VALID,917.431,VALID,0,VALID,98.6394,VALID,92.8292,VALID,19.8213,VALID,109,VALID,0,
2015-05-09, 07:23:04,VALID,917.469,VALID,0,VALID,98.5936,VALID,95.9449,VALID,19.8783,VALID,109,VALID,0,
2015-05-09, 07:24:04,VALID,917.468,VALID,0,VALID,98.6013,VALID,100.243,VALID,19.8393,VALID,109,VALID,0,
2015-05-09, 07:25:04,VALID,917.468,VALID,0,VALID,98.5784,VALID,100.78,VALID,19.8783,VALID,109,VALID,0,
2015-05-09, 07:26:04,VALID,917.475,VALID,0,VALID,98.5936,VALID,102.821,VALID,19.8588,VALID,117,VALID,0,
2015-05-09, 07:27:04,VALID,917.472,VALID,0,VALID,98.6318,VALID,105.722,VALID,19.8198,VALID,117,VALID,0,
2015-05-09, 07:28:04,VALID,917.509,VALID,0,VALID,98.6013,VALID,104.97,VALID,19.8783,VALID,117,VALID,0,
2015-05-09, 07:29:04,VALID,917.538,VALID,0,VALID,98.6013,VALID,109.697,VALID,19.9173,VALID,123,VALID,0,
2015-05-09, 07:30:04,VALID,917.548,VALID,0,VALID,98.586,VALID,116.466,VALID,19.9368,VALID,124,VALID,0,
2015-05-09, 07:31:04,VALID,917.573,VALID,0,VALID,98.586,VALID,124.095,VALID,19.9758,VALID,123,VALID,0,
2015-05-09, 07:32:04,VALID,917.606,VALID,0,VALID,98.5784,VALID,130.434,VALID,20.0163,VALID,124,VALID,0,
2015-05-09, 07:33:04,VALID,917.605,VALID,0,VALID,98.5784,VALID,122.161,VALID,19.9548,VALID,123,VALID,0,
2015-05-09, 07:34:04,VALID,917.639,VALID,0,VALID,98.586,VALID,115.929,VALID,19.9953,VALID,123,VALID,0,
2015-05-09, 07:35:04,VALID,917.653,VALID,0,VALID,98.586,VALID,113.243,VALID,19.9953,VALID,123,VALID,0,
2015-05-09, 07:36:04,VALID,917.673,VALID,0,VALID,98.586,VALID,124.954,VALID,19.9758,VALID,123,VALID,0,
2015-05-09, 07:37:04,VALID,917.686,VALID,0,VALID,98.5631,VALID,141.393,VALID,20.0538,VALID,123,VALID,0,
2015-05-09, 07:38:04,VALID,917.696,VALID,0,VALID,98.5708,VALID,155.145,VALID,20.0538,VALID,123,VALID,0,
2015-05-09, 07:39:04,VALID,917.731,VALID,0,VALID,98.5784,VALID,157.831,VALID,20.0928,VALID,123,VALID,0,
2015-05-09, 07:40:04,VALID,917.721,VALID,0,VALID,98.5174,VALID,150.955,VALID,20.2293,VALID,124,VALID,0,
2015-05-09, 07:41:04,VALID,917.739,VALID,0,VALID,98.5403,VALID,160.625,VALID,20.1903,VALID,128,VALID,0,
2015-05-09, 07:42:04,VALID,917.741,VALID,0,VALID,98.5327,VALID,165.674,VALID,20.2278,VALID,128,VALID,0,
2015-05-09, 07:43:04,VALID,917.78,VALID,0,VALID,98.5098,VALID,168.575,VALID,20.3058,VALID,128,VALID,0,
2015-05-09, 07:44:04,VALID,917.786,VALID,0,VALID,98.5098,VALID,169.972,VALID,20.3074,VALID,127,VALID,0,
2015-05-09, 07:45:04,VALID,917.801,VALID,0,VALID,98.4945,VALID,174.27,VALID,20.3854,VALID,128,VALID,0,
2015-05-09, 07:46:04,VALID,917.817,VALID,0,VALID,98.464,VALID,186.41,VALID,20.4423,VALID,128,VALID,0,
2015-05-09, 07:48:04,VALID,917.868,VALID,0,VALID,98.3878,VALID,201.13,VALID,20.7934,VALID,128,VALID,0,
2015-05-09, 07:49:04,VALID,917.877,VALID,0,VALID,98.3726,VALID,164.17,VALID,20.912,VALID,127,VALID,0,
2015-05-09, 07:50:04,VALID,917.898,VALID,0,VALID,98.4031,VALID,174.055,VALID,20.756,VALID,127,VALID,0,
2015-05-09, 07:51:04,VALID,917.899,VALID,0,VALID,98.4488,VALID,178.567,VALID,20.678,VALID,127,VALID,0,
2015-05-09, 07:52:04,VALID,917.91,VALID,0,VALID,98.4412,VALID,177.17,VALID,20.6585,VALID,127,VALID,0,
2015-05-09, 07:53:04,VALID,917.91,VALID,0,VALID,98.4335,VALID,203.064,VALID,20.756,VALID,127,VALID,0,
2015-05-09, 07:54:04,VALID,917.925,VALID,0,VALID,98.4335,VALID,170.294,VALID,20.756,VALID,127,VALID,0,
2015-05-09, 07:55:04,VALID,917.94,VALID,0,VALID,98.4488,VALID,181.898,VALID,20.7154,VALID,128,VALID,0,
2015-05-09, 07:56:04,VALID,917.911,VALID,0,VALID,98.4183,VALID,174.377,VALID,20.8145,VALID,128,VALID,0,
2015-05-09, 07:57:04,VALID,917.924,VALID,0,VALID,98.464,VALID,192.749,VALID,20.678,VALID,127,VALID,0,
2015-05-09, 07:58:04,VALID,917.934,VALID,0,VALID,98.4945,VALID,228.312,VALID,20.6374,VALID,127,VALID,0,
2015-05-09, 07:59:04,VALID,917.943,VALID,0,VALID,98.4869,VALID,236.156,VALID,20.6764,VALID,127,VALID,0,
2015-05-09, 08:00:04,VALID,917.951,VALID,0,VALID,98.4488,VALID,179.749,VALID,20.7739,VALID,127,VALID,0,
2015-05-09, 08:01:04,VALID,917.977,VALID,0,VALID,98.464,VALID,176.203,VALID,20.7755,VALID,127,VALID,0,
2015-05-09, 08:02:04,VALID,917.977,VALID,0,VALID,98.4717,VALID,200.593,VALID,20.7544,VALID,59,VALID,0,
2015-05-09, 08:03:04,VALID,917.986,VALID,0,VALID,98.5098,VALID,181.468,VALID,20.6959,VALID,331,VALID,0,
2015-05-09, 08:04:04,VALID,918.003,VALID,0,VALID,98.5403,VALID,213.593,VALID,20.5399,VALID,330,VALID,0,
2015-05-09, 08:05:04,VALID,918.022,VALID,0,VALID,98.5784,VALID,201.237,VALID,20.4813,VALID,330,VALID,0,
2015-05-09, 08:06:04,VALID,917.994,VALID,0,VALID,98.5784,VALID,191.568,VALID,20.4423,VALID,330,VALID,0,
2015-05-09, 08:07:04,VALID,918.021,VALID,0,VALID,98.5631,VALID,182.757,VALID,20.5009,VALID,330,VALID,0,
2015-05-09, 08:08:04,VALID,918.015,VALID,0,VALID,98.5708,VALID,182.972,VALID,20.5009,VALID,330,VALID,0,
2015-05-09, 08:09:04,VALID,918.032,VALID,0,VALID,98.5403,VALID,157.079,VALID,20.5789,VALID,330,VALID,0,
2015-05-09, 08:10:04,VALID,918.045,VALID,0,VALID,98.5098,VALID,231.213,VALID,20.6179,VALID,330,VALID,0,
2015-05-09, 08:11:04,VALID,918.059,VALID,0,VALID,98.5403,VALID,292.025,VALID,20.5773,VALID,330,VALID,0,
2015-05-09, 08:12:04,VALID,918.038,VALID,0,VALID,98.5327,VALID,247.33,VALID,20.6764,VALID,330,VALID,0,
2015-05-09, 08:13:04,VALID,918.017,VALID,0,VALID,98.5403,VALID,261.297,VALID,20.6748,VALID,330,VALID,0,
2015-05-09, 08:14:04,VALID,918.092,VALID,0,VALID,98.525,VALID,163.418,VALID,20.6764,VALID,330,VALID,0,
2015-05-09, 08:15:04,VALID,918.053,VALID,0,VALID,98.525,VALID,187.807,VALID,20.7365,VALID,330,VALID,0,
2015-05-09, 08:16:04,VALID,918.036,VALID,0,VALID,98.5327,VALID,307.819,VALID,20.6975,VALID,330,VALID,0,
2015-05-09, 08:17:04,VALID,918.051,VALID,0,VALID,98.5479,VALID,328.985,VALID,20.7154,VALID,330,VALID,0,
2015-05-09, 08:18:04,VALID,918.058,VALID,0,VALID,98.5403,VALID,275.157,VALID,20.7739,VALID,330,VALID,0,
2015-05-09, 08:19:04,VALID,918.093,VALID,0,VALID,98.525,VALID,274.834,VALID,20.7544,VALID,330,VALID,0,
2015-05-09, 08:20:04,VALID,918.088,VALID,0,VALID,98.525,VALID,235.618,VALID,20.7934,VALID,330,VALID,0,
2015-05-09, 08:21:04,VALID,918.127,VALID,0,VALID,98.5174,VALID,314.695,VALID,20.8519,VALID,330,VALID,0,
2015-05-09, 08:22:04,VALID,918.156,VALID,0,VALID,98.5403,VALID,286.331,VALID,20.7918,VALID,330,VALID,0,
2015-05-09, 08:23:04,VALID,918.156,VALID,0,VALID,98.5479,VALID,255.925,VALID,20.8113,VALID,330,VALID,0,
2015-05-09, 08:24:04,VALID,918.16,VALID,0,VALID,98.5479,VALID,321.034,VALID,20.8309,INVALID,360,VALID,0,
2015-05-09, 08:25:04,VALID,918.146,VALID,0,VALID,98.5403,VALID,289.339,VALID,20.8699,INVALID,360,VALID,0,
2015-05-09, 08:26:04,VALID,918.144,VALID,0,VALID,98.5555,VALID,324.58,VALID,20.8324,VALID,330,VALID,0,
2015-05-09, 08:27:04,VALID,918.14,VALID,0,VALID,98.5784,VALID,308.356,VALID,20.834,VALID,330,VALID,0,
2015-05-09, 08:28:04,VALID,918.176,VALID,0,VALID,98.586,VALID,316.737,VALID,20.8504,VALID,330,VALID,0,
2015-05-09, 08:29:04,VALID,918.132,VALID,0,VALID,98.5784,VALID,345.746,VALID,20.9284,VALID,330,VALID,0,
2015-05-09, 08:30:04,VALID,918.124,VALID,0,VALID,98.5479,VALID,344.779,VALID,21.0665,VALID,330,VALID,0,
2015-05-09, 08:31:04,VALID,918.132,VALID,0,VALID,98.586,VALID,347.142,VALID,21.008,VALID,330,VALID,0,
2015-05-09, 08:32:04,VALID,918.083,VALID,0,VALID,98.6089,VALID,351.547,VALID,21.047,VALID,330,VALID,0,
2015-05-09, 08:33:04,VALID,918.078,VALID,0,VALID,98.6165,VALID,353.589,VALID,21.086,VALID,294,VALID,0,
2015-05-09, 08:34:04,VALID,918.085,VALID,0,VALID,98.5708,VALID,357.457,VALID,21.2226,VALID,284,VALID,0,
2015-05-09, 08:35:04,VALID,918.081,VALID,0,VALID,98.5479,VALID,363.044,VALID,21.3591,VALID,284,VALID,0,
2015-05-09, 08:36:04,VALID,918.096,VALID,0,VALID,98.4945,VALID,362.829,VALID,21.5136,VALID,284,VALID,0,
2015-05-09, 08:37:04,VALID,918.047,VALID,0,VALID,98.4793,VALID,368.953,VALID,21.6111,VALID,284,VALID,0,
2015-05-09, 08:38:04,VALID,918.071,VALID,0,VALID,98.5022,VALID,377.871,VALID,21.7477,VALID,284,VALID,0,
2015-05-09, 08:39:04,VALID,918.11,VALID,0,VALID,98.5174,VALID,381.201,VALID,21.8062,VALID,284,VALID,0,
2015-05-09, 08:40:04,VALID,918.086,VALID,0,VALID,98.5098,VALID,385.391,VALID,21.9623,VALID,285,VALID,0,
2015-05-09, 08:41:04,VALID,918.093,VALID,0,VALID,98.5327,VALID,386.251,VALID,22.0208,VALID,285,VALID,0,
2015-05-09, 08:42:04,VALID,918.116,VALID,0,VALID,98.5403,VALID,390.871,VALID,22.1379,VALID,285,VALID,0,
2015-05-09, 08:43:04,VALID,918.087,VALID,0,VALID,98.586,VALID,402.904,VALID,22.1769,VALID,291,VALID,0,
2015-05-09, 08:44:04,VALID,918.089,VALID,0,VALID,98.5327,VALID,410.103,VALID,22.372,VALID,291,VALID,0,
2015-05-09, 08:45:04,VALID,918.112,VALID,0,VALID,98.5174,VALID,413.541,VALID,22.6274,VALID,289,VALID,0,
2015-05-09, 08:46:04,VALID,918.12,VALID,0,VALID,98.6241,VALID,426.434,VALID,22.6257,VALID,281,VALID,0,
2015-05-09, 08:47:04,VALID,918.108,VALID,0,VALID,98.647,VALID,426.756,VALID,22.6647,VALID,314,VALID,0,
2015-05-09, 08:48:04,VALID,918.114,VALID,0,VALID,98.586,VALID,426.971,VALID,22.7216,VALID,306,VALID,0,
2015-05-09, 08:49:04,VALID,918.129,VALID,0,VALID,98.4564,VALID,423.318,VALID,22.7818,VALID,316,VALID,0,
2015-05-09, 08:50:04,VALID,918.119,VALID,0,VALID,98.0524,VALID,424.5,VALID,22.8191,VALID,316,VALID,0,
2015-05-09, 08:51:04,VALID,918.101,VALID,0,VALID,97.2595,VALID,422.351,VALID,22.8014,VALID,274,VALID,0,
2015-05-09, 08:52:04,VALID,918.134,VALID,0,VALID,96.3676,VALID,417.194,VALID,22.7606,VALID,274,VALID,0,
2015-05-09, 08:53:04,VALID,918.091,VALID,0,VALID,95.3461,VALID,421.921,VALID,22.8794,VALID,274,VALID,0,
2015-05-09, 08:54:04,VALID,918.083,VALID,0,VALID,94.881,VALID,419.343,VALID,23.0551,VALID,274,VALID,0,
2015-05-09, 08:55:04,VALID,918.063,VALID,0,VALID,92.8303,VALID,415.045,VALID,23.1314,VALID,299,VALID,0,
2015-05-09, 08:56:04,VALID,918.064,VALID,0,VALID,91.2447,VALID,408.921,VALID,23.1119,VALID,325,VALID,0,
2015-05-09, 08:57:04,VALID,918.058,VALID,0,VALID,92.0527,VALID,409.458,VALID,23.2094,VALID,327,VALID,0,
2015-05-09, 08:58:04,VALID,918.038,VALID,0,VALID,87.837,VALID,405.805,VALID,23.307,VALID,282,VALID,0,